Location: St. Louis
(38.6270°N, 90.1994°W)
Time: 18:21:39
(UTC-06:00)

Tiros 1 - Pass Details

Date: 09 December 2021
Orbit: 629 x 664 km, 48.4° (Epoch: 26 January)

Event Time Altitude Azimuth Distance (km) Brightness Sun altitude
Rises 18:02:11 0° 275° (W) 2,914 11.8 -15.7°
Reaches altitude 10° 18:04:46 10° 287° (WNW) 2,011 10.5 -16.2°
Maximum altitude 18:08:47 29° 347° (NNW) 1,180 8.4 -16.9°
Enters shadow 18:10:46 21° 27° (NNE) 1,431 8.5 -17.3°
